Lid_Strength_Index
11 12 14 12 11 10 12 13 13 12 10 11 12 11 11 9 10 11 10 9 10 9 7 7 6 5 5 6 5 4 4 4 4 5 6 5 3 3 1 1 1 1 1 -0
11 13 10 9 10 10 11 12 13 11 9 10 11 11 10 9 10 10 9 8 8 8 8 6 5 4 3 5 5 6 6 7 8 8 8 7 4 3 3 1 -0 -0 -0 -0
12 10 8 9 10 10 11 12 12 12 11 10 11 12 11 9 9 8 9 8 8 8 7 5 4 5 3 4 5 6 7 7 7 5 5 5 3 3 2 1 1 0 -0 -0
12 9 9 10 11 10 13 10 10 11 13 15 12 16 13 11 10 9 9 9 8 8 8 7 4 4 4 3 4 3 3 3 2 2 2 3 4 4 3 3 2 1 -0 -0
12 11 11 12 11 10 11 9 10 11 14 14 14 15 13 11 11 10 9 8 8 7 7 7 5 4 4 5 5 4 3 3 2 3 3 4 4 4 3 3 2 2 1 0
10 8 9 10 9 10 9 12 13 14 15 18 15 15 15 13 11 9 8 7 8 8 8 8 6 6 6 6 5 4 3 3 3 3 3 3 3 4 4 4 3 2 2 1
11 11 9 8 11 10 12 15 18 19 19 18 15 15 14 11 9 8 8 9 9 8 9 8 8 7 7 6 5 4 4 4 4 4 3 3 3 4 4 4 4 3 2 2
13 15 10 8 10 12 13 15 18 20 20 18 13 16 13 8 8 9 9 9 9 10 10 9 9 8 8 8 8 8 7 6 6 5 5 5 4 5 4 4 4 3 2 2
14 13 9 8 8 10 13 15 13 16 16 18 16 13 11 9 9 8 8 9 10 10 10 10 9 9 9 9 9 9 9 8 7 7 6 6 5 5 5 4 3 3 2 1
12 14 10 9 7 8 11 10 15 16 21 21 17 16 15 12 11 10 10 10 10 10 9 9 8 8 8 8 8 7 7 7 7 7 7 7 6 5 5 4 4 3 2 2
11 13 13 11 12 12 12 14 13 14 16 20 20 17 11 11 11 11 11 11 10 10 9 9 9 8 8 8 8 8 8 7 8 7 7 7 7 7 6 6 5 4 3 2
10 13 16 14 11 10 11 13 13 17 18 17 19 17 11 12 11 11 11 10 10 10 10 10 9 9 9 9 8 8 8 8 8 7 8 8 8 7 7 7 6 5 5 4
10 14 17 16 13 11 13 12 13 13 14 18 19 17 10 10 11 11 11 11 10 10 10 10 10 10 10 9 9 9 8 8 8 8 8 8 8 8 8 7 6 5 5 5
8 13 14 17 15 13 15 13 13 14 17 17 17 15 11 11 11 11 11 11 11 11 10 10 10 10 10 10 10 9 9 8 8 8 8 8 8 7 7 7 7 6 6 7
12 15 14 13 12 12 13 13 13 15 14 17 15 14 12 10 11 11 11 10 10 11 10 10 10 10 10 9 9 8 8 8 8 8 8 8 8 8 8 8 8 7 7 7
12 15 14 15 12 12 13 12 12 12 12 13 13 13 9 10 10 11 10 10 10 11 10 9 9 9 9 9 9 8 8 9 8 9 9 9 9 9 9 9 9 10 9 9
13 14 15 17 14 14 16 13 13 12 12 12 15 12 11 11 10 10 10 10 10 10 10 9 9 9 9 9 9 10 10 9 9 10 10 10 10 11 11 10 11 11 10 10
13 15 16 17 16 20 14 9 10 11 11 11 11 11 10 11 10 10 9 10 10 10 10 10 9 10 10 10 10 10 10 10 10 11 11 11 11 12 11 11 11 11 10 10
12 15 16 19 20 16 13 11 11 12 13 9 11 10 10 10 11 11 9 9 10 10 10 10 10 10 10 10 10 11 11 11 12 13 12 12 12 12 12 11 11 10 9 9
11 13 16 15 21 19 14 10 7 8 15 9 10 11 11 11 14 13 10 10 10 10 10 10 9 10 10 11 11 12 13 13 13 13 13 12 11 11 11 11 10 9 9 9
14 13 15 16 18 15 11 9 7 16 14 10 10 11 12 13 12 11 11 11 11 11 11 11 12 13 12 12 13 14 14 14 13 13 12 11 11 11 10 10 9 9 9 8
14 15 16 15 17 19 8 9 13 11 10 10 11 12 12 12 11 11 11 12 12 12 12 12 12 13 13 13 14 15 15 14 13 12 12 11 11 10 9 9 9 9 9 9
15 12 15 14 15 9 8 9 8 8 10 11 12 11 11 12 12 12 12 12 12 12 12 12 14 15 14 14 14 15 14 12 12 12 12 12 10 9 8 9 9 9 9 8
10 8 12 12 10 9 7 9 9 10 10 10 11 11 12 13 13 13 13 12 12 13 14 15 15 16 16 15 14 14 13 12 12 13 12 10 9 8 8 8 8 8 8 8
11 9 11 11 9 8 8 8 9 10 9 10 11 12 12 12 13 12 12 13 14 15 15 15 16 16 16 15 14 13 12 12 13 12 11 9 8 8 8 8 8 7 6 7
11 11 12 13 9 10 10 10 9 10 11 11 11 12 12 12 12 12 14 15 15 16 16 16 16 16 16 15 14 13 13 13 13 13 11 8 8 8 8 8 7 7 8 8